{"data":{"norad_id":56291,"intl_designator":"2023-056F","name":"STARLINK-30113","alt_names":[],"object_type":"PAYLOAD","status":"ACTIVE","operator":null,"country":"US","launch_date":"2023-04-19","launch_site_code":"AFETR","launch_vehicle":null,"mission":null,"orbit_class":"UNKNOWN","rcs_meters":null,"size_class":null,"mass_kg":null,"dimensions":null,"purposes":["comms"],"wikipedia_slug":null,"has_3d_model":false,"image_url":null,"decayed_at":null,"tle_current":{"epoch":"2026-05-24T10:12:35.697888Z","epoch_age_seconds":124451,"freshness":"FRESH","line1":"1 56291U 23056F   26144.42541317 -.00001744  00000+0 -53866-4 0  9992","line2":"2 56291  43.0054 141.1284 0001366 293.3195  66.7513 15.27578569171620","mean_motion":15.27578569,"eccentricity":0.0001366,"inclination_deg":43.0054,"raan_deg":141.1284,"arg_perigee_deg":293.3195,"mean_anomaly_deg":66.7513,"bstar":-5.3866e-5,"rev_number":17162,"period_min":94.266837020545,"perigee_km":482.11614236576,"apogee_km":483.99061957784,"semimajor_km":6861.1903809718,"source":"CELESTRAK","updated_at":"2026-05-25T13:38:17.965080Z"}}}